Beatrice, NE

6:32 PM CDT on May 22, 2017 (GMT -0500)
Beatrice Municipal

Weather History for KBIE - August, 2013

Change the Weather History Date:

Tuesday, August 20, 2013

  Actual Average Record
Temperature  
Mean Temperature 78 °F -  
Max Temperature 88 °F 90 °F 100 °F (2003)
Min Temperature 69 °F 64 °F 40 °F (1950)
Cooling Degree Days 14    
Growing Degree Days 28 (Base 50)    
Moisture  
Dew Point 69 °F    
Average Humidity 74    
Maximum Humidity 96    
Minimum Humidity 48    
Precipitation  
Precipitation 0.03 in - - ()
Sea Level Pressure  
Sea Level Pressure 29.98 in    
Wind  
Wind Speed 10 mph (South)    
Max Wind Speed 20 mph    
Max Gust Speed 24 mph    
Visibility 10 miles    
Events      
Averages and records for this station are not official NWS values.
T = Trace of Precipitation, MM = Missing Value Source: NWS Daily Summary

Daily Weather History Graph

Daily Weather History Graph

Search for Another Location

Airport or City:

Trip Planner

Search our weather history database for the weather conditions in past years. The results will help you decide how hot, cold, wet, or windy it might be!

Date:

Astronomy

Aug. 20, 2013 Rise Set
Actual Time 6:43 AM CDT 8:16 PM CDT
Civil Twilight 6:14 AM CDT 8:45 PM CDT
Nautical Twilight 5:39 AM CDT 9:19 PM CDT
Astronomical Twilight 5:02 AM CDT 9:56 PM CDT
Moon 7:48 PM CDT (8/20) 6:14 AM CDT (8/20)
Length of Visible Light 14h 30m
Length of Day
13h 33m
Full, 100% of the Moon is Illuminated
Aug 20
Full
Aug 20
Full
Aug 28
Last Quarter
Sep 5
New
Sep 12
First Quarter

Hourly Weather History & Observations

Time (CDT) Temp. Heat Index Dew Point Humidity Pressure Visibility Wind Dir Wind Speed Gust Speed Precip Events Conditions
12:15 AM 73.4 °F - 70.2 °F 90% 29.99 in 10.0 mi SSE 8.1 mph - N/A   Clear
12:35 AM 72.9 °F - 70.3 °F 92% 29.99 in 10.0 mi SSE 8.1 mph - N/A   Clear
12:55 AM 72.7 °F - 70.2 °F 92% 29.99 in 10.0 mi SSE 9.2 mph - N/A   Clear
1:15 AM 72.7 °F - 70.2 °F 92% 29.99 in 10.0 mi South 11.5 mph 17.3 mph N/A   Clear
1:35 AM 72.7 °F - 70.0 °F 91% 29.99 in 10.0 mi South 10.4 mph - N/A   Clear
1:55 AM 72.5 °F - 69.8 °F 91% 29.99 in 10.0 mi South 11.5 mph - N/A   Clear
2:15 AM 72.5 °F - 69.8 °F 91% 29.99 in 10.0 mi South 11.5 mph - N/A   Clear
2:35 AM 72.5 °F - 69.4 °F 90% 29.99 in 10.0 mi South 10.4 mph - N/A   Clear
2:55 AM 72.0 °F - 69.1 °F 91% 29.98 in 10.0 mi South 10.4 mph - N/A   Clear
3:15 AM 71.6 °F - 69.1 °F 92% 29.98 in 10.0 mi South 9.2 mph - N/A   Clear
3:35 AM 71.1 °F - 68.9 °F 93% 29.98 in 10.0 mi South 9.2 mph - N/A   Clear
3:55 AM 70.7 °F - 68.9 °F 94% 29.98 in 10.0 mi South 9.2 mph - N/A   Clear
4:15 AM 70.7 °F - 68.9 °F 94% 29.98 in 10.0 mi South 6.9 mph - N/A   Clear
4:35 AM 70.2 °F - 68.5 °F 95% 29.98 in 10.0 mi South 5.8 mph - N/A   Clear
4:55 AM 69.8 °F - 68.5 °F 96% 29.98 in 10.0 mi South 6.9 mph - N/A   Clear
5:15 AM 69.8 °F - 68.4 °F 95% 29.98 in 10.0 mi South 6.9 mph - N/A   Clear
5:35 AM 69.8 °F - 68.2 °F 95% 29.99 in 10.0 mi South 5.8 mph - N/A   Clear
5:55 AM 69.8 °F - 68.2 °F 95% 29.98 in 10.0 mi South 6.9 mph - N/A   Clear
6:15 AM 69.4 °F - 68.0 °F 95% 29.98 in 10.0 mi South 6.9 mph - N/A   Clear
6:35 AM 69.3 °F - 68.0 °F 96% 29.99 in 10.0 mi South 6.9 mph - N/A   Clear
6:55 AM 69.3 °F - 68.0 °F 96% 29.99 in 10.0 mi South 4.6 mph - N/A   Clear
7:15 AM 69.3 °F - 68.0 °F 96% 30.00 in 10.0 mi South 6.9 mph - N/A   Clear
7:35 AM 69.8 °F - 68.2 °F 95% 30.00 in 7.0 mi South 8.1 mph - N/A   Clear
7:55 AM 70.5 °F - 68.5 °F 93% 30.00 in 10.0 mi South 9.2 mph - N/A   Clear
8:15 AM 71.6 °F - 69.1 °F 92% 30.01 in 10.0 mi South 11.5 mph - 0.03 in   Clear
8:35 AM 72.7 °F - 69.1 °F 88% 30.00 in 10.0 mi SSW 12.7 mph - 0.03 in   Clear
8:55 AM 73.9 °F - 69.3 °F 85% 30.00 in 10.0 mi SSW 13.8 mph 24.2 mph 0.03 in   Clear
9:15 AM 75.2 °F - 69.3 °F 82% 30.00 in 10.0 mi SSW 16.1 mph - N/A   Clear
9:35 AM 76.3 °F - 69.4 °F 79% 30.00 in 10.0 mi SSW 19.6 mph - N/A   Clear
9:55 AM 77.2 °F - 69.3 °F 76% 30.00 in 10.0 mi SSW 17.3 mph - N/A   Clear
10:15 AM 78.1 °F - 69.6 °F 75% 30.01 in 10.0 mi SSW 16.1 mph 24.2 mph N/A   Clear
10:35 AM 79.0 °F - 69.3 °F 72% 30.01 in 10.0 mi SSW 17.3 mph 23.0 mph N/A   Clear
10:55 AM 80.1 °F 83.2 °F 69.8 °F 71% 30.01 in 10.0 mi SSW 13.8 mph 20.7 mph N/A   Clear
11:15 AM 80.8 °F 83.9 °F 69.4 °F 68% 30.01 in 10.0 mi SSW 15.0 mph 23.0 mph N/A   Clear
11:35 AM 81.7 °F 84.7 °F 68.4 °F 64% 30.01 in 10.0 mi SSW 11.5 mph 21.9 mph N/A   Clear
11:55 AM 82.4 °F 85.0 °F 67.1 °F 60% 30.01 in 10.0 mi SSW 17.3 mph 23.0 mph N/A   Clear
12:15 PM 83.3 °F 86.2 °F 67.6 °F 59% 30.00 in 10.0 mi SSW 15.0 mph 19.6 mph N/A   Clear
12:35 PM 84.2 °F 87.1 °F 67.6 °F 57% 30.00 in 10.0 mi SSW 15.0 mph 19.6 mph N/A   Clear
12:55 PM 84.9 °F 87.6 °F 67.3 °F 55% 29.99 in 10.0 mi SW 13.8 mph 23.0 mph N/A   Clear
1:15 PM 85.1 °F 88.2 °F 68.0 °F 56% 29.99 in 10.0 mi SSW 16.1 mph - N/A   Clear
1:35 PM 85.8 °F 88.8 °F 67.6 °F 54% 29.99 in 10.0 mi SSW 13.8 mph 18.4 mph N/A   Clear
1:55 PM 86.5 °F 90.0 °F 68.4 °F 54% 29.98 in 10.0 mi SSW 15.0 mph 20.7 mph N/A   Clear
2:15 PM 87.1 °F 90.9 °F 68.7 °F 54% 29.98 in 10.0 mi SSW 15.0 mph - N/A   Clear
2:35 PM 87.4 °F 91.2 °F 68.4 °F 53% 29.98 in 10.0 mi SW 11.5 mph 18.4 mph N/A   Clear
2:55 PM 87.8 °F 90.7 °F 67.3 °F 50% 29.97 in 10.0 mi SW 12.7 mph - N/A   Clear
3:15 PM 88.2 °F 91.3 °F 67.6 °F 50% 29.97 in 10.0 mi SSW 13.8 mph - N/A   Clear
3:35 PM 88.2 °F 91.7 °F 67.8 °F 51% 29.96 in 10.0 mi SSW 13.8 mph - N/A   Clear
3:55 PM 88.5 °F 91.6 °F 66.9 °F 49% 29.96 in 10.0 mi SSW 15.0 mph - N/A   Clear
4:15 PM 88.7 °F 91.5 °F 66.9 °F 48% 29.95 in 10.0 mi SSW 16.1 mph - N/A   Clear
4:35 PM 88.2 °F 91.3 °F 67.6 °F 50% 29.95 in 10.0 mi South 11.5 mph - N/A   Clear
4:55 PM 88.7 °F 91.9 °F 67.1 °F 49% 29.95 in 10.0 mi SSW 15.0 mph - N/A   Clear
5:15 PM 88.7 °F 91.5 °F 66.9 °F 48% 29.95 in 10.0 mi SSW 13.8 mph - N/A   Clear
5:35 PM 88.7 °F 92.2 °F 67.8 °F 50% 29.95 in 10.0 mi SSW 12.7 mph - N/A   Clear
5:55 PM 88.0 °F 92.5 °F 69.3 °F 54% 29.94 in 10.0 mi South 10.4 mph - N/A   Clear
6:15 PM 87.1 °F 91.3 °F 69.1 °F 55% 29.94 in 10.0 mi South 10.4 mph - N/A   Clear
6:35 PM 86.0 °F 90.4 °F 69.4 °F 58% 29.94 in 10.0 mi South 8.1 mph - N/A   Clear
6:55 PM 85.1 °F 89.1 °F 69.3 °F 59% 29.94 in 10.0 mi South 8.1 mph - N/A   Clear
7:15 PM 84.2 °F 87.9 °F 68.9 °F 60% 29.94 in 10.0 mi South 8.1 mph - N/A   Clear
7:35 PM 83.5 °F 86.9 °F 68.5 °F 61% 29.94 in 10.0 mi South 9.2 mph - N/A   Clear
7:55 PM 82.4 °F 85.6 °F 68.5 °F 63% 29.95 in 10.0 mi South 8.1 mph - N/A   Clear
8:15 PM 81.3 °F 84.3 °F 68.7 °F 65% 29.95 in 10.0 mi SSE 6.9 mph - N/A   Clear
8:35 PM 81.0 °F 83.4 °F 67.5 °F 63% 29.95 in 10.0 mi South 9.2 mph - N/A   Clear
8:55 PM 79.7 °F - 68.7 °F 69% 29.95 in 10.0 mi South 8.1 mph - N/A   Clear
9:15 PM 79.5 °F - 68.9 °F 70% 29.96 in 10.0 mi South 8.1 mph - N/A   Clear
9:35 PM 79.0 °F - 68.9 °F 71% 29.97 in 10.0 mi South 9.2 mph - N/A   Clear
9:55 PM 79.0 °F - 68.5 °F 70% 29.97 in 10.0 mi South 10.4 mph - N/A   Clear
10:15 PM 78.4 °F - 68.9 °F 72% 29.97 in 10.0 mi South 10.4 mph - N/A   Clear
10:35 PM 77.9 °F - 68.9 °F 74% 29.97 in 10.0 mi South 12.7 mph - N/A   Clear
10:55 PM 77.5 °F - 68.7 °F 74% 29.98 in 10.0 mi South 10.4 mph - N/A   Clear
11:15 PM 77.0 °F - 68.9 °F 76% 29.98 in 10.0 mi South 11.5 mph - N/A   Clear
11:35 PM 76.6 °F - 68.9 °F 77% 29.98 in 10.0 mi South 11.5 mph - N/A   Clear
11:55 PM 76.6 °F - 69.3 °F 78% 29.98 in 10.0 mi South 12.7 mph 18.4 mph N/A   Clear